Weather History for Madison, WI

Change the Weather History Date:

Sunday, December 25, 2011

  Actual Average Record
Temperature  
Mean Temperature 33 °F 20 °F  
Max Temperature 43 °F 28 °F 56 °F (1982)
Min Temperature 23 °F 13 °F -21 °F (2000)
Degree Days  
Heating Degree Days 32 45  
Month to date heating degree days 840 1030  
Since 1 July heating degree days 2192 2609  
Cooling Degree Days 0 0  
Month to date cooling degree days 0 0  
Year to date cooling degree days 814 568  
Moisture  
Dew Point 25 °F    
Average Humidity 67    
Maximum Humidity 84    
Minimum Humidity 49    
Precipitation  
Precipitation 0.00 in 0.04 in 0.67 in (1876)
Month to date precipitation 1.95 1.48  
Year to date precipitation 30.26 34.22  
Snow  
Snow 0.00 in 0.40 in 4.80 in (1950)
Month to date snowfall 2.2 11.0  
Since 1 July snowfall 3.8 15.1  
Snow Depth T in    
Sea Level Pressure  
Sea Level Pressure 30.16 in    
Wind  
Wind Speed 7 mph (WNW)    
Max Wind Speed 21 mph    
Max Gust Speed 29 mph    
Visibility 10 miles    
Events      
T = Trace of Precipitation, MM = Missing Value Source: NWS Daily Summary

Daily Weather History Graph

Daily Weather History Graph

Search for Another Location

Airport:

Trip Planner

Search our weather history database for the weather conditions in past years. The results will help you decide how hot, cold, wet, or windy it might be!

Date:

Astronomy

Dec. 25, 2011 Rise Set
Actual Time 7:27 AM CST 4:27 PM CST
Civil Twilight 6:55 AM CST 4:59 PM CST
Nautical Twilight 6:19 AM CST 5:35 PM CST
Astronomical Twilight 5:44 AM CST 6:10 PM CST
Moon 8:04 AM CST (12/25) 5:49 PM CST (12/25)
Length of Visible Light 10h 04m
Length of Day
8h 59m
New Moon, 1% of the Moon is Illuminated
Dec 25
New Moon
Jan 1
First Quarter
Jan 9
Full
Jan 16
Last Quarter
Jan 23
New

Hourly Weather History & Observations

Time (CST) Temp. Windchill Dew Point Humidity Pressure Visibility Wind Dir Wind Speed Gust Speed Precip Events Conditions
12:53 AM 37.0 °F 32.4 °F 27.0 °F 67% 30.04 in 10.0 mi SW 5.8 mph - N/A   Clear
1:53 AM 37.9 °F 32.7 °F 27.0 °F 65% 30.03 in 10.0 mi SW 6.9 mph - N/A   Clear
2:53 AM 37.0 °F 31.6 °F 27.0 °F 67% 30.01 in 10.0 mi SW 6.9 mph - N/A   Clear
3:53 AM 37.0 °F 31.6 °F 26.1 °F 65% 30.01 in 10.0 mi SW 6.9 mph - N/A   Clear
4:53 AM 36.0 °F 31.1 °F 25.0 °F 64% 30.01 in 10.0 mi West 5.8 mph - N/A   Clear
5:53 AM 36.0 °F 28.5 °F 24.1 °F 62% 30.01 in 10.0 mi West 10.4 mph - N/A   Clear
6:53 AM 35.1 °F 30.1 °F 23.0 °F 61% 30.02 in 10.0 mi West 5.8 mph - N/A   Clear
7:53 AM 35.1 °F 29.3 °F 23.0 °F 61% 30.05 in 10.0 mi West 6.9 mph - N/A   Clear
8:53 AM 37.0 °F 29.3 °F 24.1 °F 59% 30.08 in 10.0 mi West 11.5 mph 18.4 mph N/A   Clear
9:53 AM 39.0 °F 31.4 °F 25.0 °F 57% 30.11 in 10.0 mi WNW 12.7 mph 17.3 mph N/A   Partly Cloudy
10:53 AM 39.9 °F 32.1 °F 26.1 °F 58% 30.14 in 10.0 mi WNW 13.8 mph 21.9 mph N/A   Partly Cloudy
11:53 AM 42.1 °F 34.5 °F 26.1 °F 53% 30.14 in 10.0 mi NW 15.0 mph 23.0 mph N/A   Partly Cloudy
12:53 PM 41.0 °F 33.1 °F 26.1 °F 55% 30.16 in 10.0 mi NW 15.0 mph 25.3 mph N/A   Overcast
1:53 PM 42.1 °F 34.2 °F 25.0 °F 51% 30.17 in 10.0 mi NW 16.1 mph 20.7 mph N/A   Mostly Cloudy
2:53 PM 41.0 °F 34.3 °F 25.0 °F 53% 30.20 in 10.0 mi NNW 11.5 mph 23.0 mph N/A   Scattered Clouds
3:53 PM 39.9 °F 35.8 °F 26.1 °F 58% 30.24 in 10.0 mi NW 5.8 mph - N/A   Mostly Cloudy
4:53 PM 37.0 °F 34.5 °F 25.0 °F 62% 30.27 in 10.0 mi NW 3.5 mph - N/A   Scattered Clouds
5:53 PM 35.1 °F 31.0 °F 25.0 °F 67% 30.28 in 10.0 mi NNW 4.6 mph - N/A   Partly Cloudy
6:53 PM 32.0 °F 27.5 °F 24.1 °F 73% 30.29 in 10.0 mi NNW 4.6 mph - N/A   Clear
7:53 PM 30.0 °F - 24.1 °F 79% 30.32 in 10.0 mi Calm Calm - N/A   Clear
8:53 PM 27.0 °F - 23.0 °F 85% 30.31 in 10.0 mi Calm Calm - N/A   Clear
9:53 PM 24.1 °F - 19.9 °F 84% 30.30 in 10.0 mi Calm Calm - N/A   Clear
10:53 PM 25.0 °F - 19.9 °F 81% 30.30 in 10.0 mi Calm Calm - N/A   Clear
11:53 PM 25.0 °F - 21.9 °F 88% 30.29 in 10.0 mi Calm Calm - N/A   Clear